Terug naar catalogus

FENGYUN 1C DEB

ActiefPO
NORAD 30110·DEBRIS·🇨🇳 China

Gelanceerd May 10, 1999 vanaf Taiyuan Satellite Launch Center

Loading…

Volgende Passages (komende 24 uur)

TLE

VersSource: Space-Track

Epoch: Sep 14, 2026, 17:27 UTC

1 30110U 99025RP  26257.72743877  .00000083  00000-0  13807-3 0  9990
2 30110  98.9114 345.5491 0267492   2.1592 358.0639 13.56349431972561

Volg FENGYUN 1C DEB in realtime met AllMySat

Download on the App Store